Flag for Niger Weather past 2 weeks in Niamey, Niger

Now
93 °F

Scattered clouds.


Feels Like: 99 °F
Forecast: 80 / 94 °F
Wind: 12 mph from Southwest

Location: Niamey-Aero

Current Time: Jul 29, 2014 at 1:44:15 PM

Latest Report: Jul 29, 2014 at 1:00 PM


Visibility: N/A

Pressure: 29.89 "Hg

Humidity: 47%

Dew point: 70 °F

Location of NiameyLocation

Historic Weather in Niamey — Graph

°F

Niamey temperature yesterday

Maximum temperature yesterday: 95 °F (at 2:00 PM)
Minimum temperature yesterday: 81 °F (at 6:00 AM)
Average temperature yesterday: 88 °F

Past Weeks' High & Low Weather Summary

 TemperatureHumidityPressure
High99 °F (Jul 15, 3:00 PM)100% (Jul 22, 11:00 AM)30.04 "Hg (Jul 22, 11:00 AM)
Low72 °F (Jul 17, 5:00 AM)33% (Jul 15, 3:00 PM)29.77 "Hg (Jul 16, 5:00 PM)
Average85 °F64%29.90 "Hg
* Reported Jul 14 12:00 Noon — Jul 29 12:00 Noon, Niamey, Weather by CustomWeather, © 2014

Note: Actual official high and low records may vary slightly from our data, if they occured in-between our weather recording intervals... More about our weather records

Advertising

Niamey weather history for previous 24 hours

 ConditionsComfort  
Time TempWeatherWind HumidityBarometerVisibility
12:00 PM
Jul 29
93 °FScattered clouds.9 mph47%29.92 "HgN/A
11:00 AM90 °FPassing clouds.13 mph52%29.92 "HgN/A
10:00 AM86 °FSunny.8 mph62%29.95 "Hg10 mi
9:00 AM84 °FSunny.8 mph66%29.95 "Hg10 mi
8:00 AM82 °FSunny.5 mph70%29.92 "Hg10 mi
7:00 AM81 °FSunny.5 mph74%29.89 "Hg10 mi
6:00 AM81 °FClear.5 mph74%29.89 "Hg10 mi
5:00 AM82 °FClear.5 mph66%29.89 "Hg10 mi
4:00 AM82 °FPassing clouds.6 mph70%29.86 "HgN/A
3:00 AM84 °FPassing clouds.7 mph66%29.86 "HgN/A
2:00 AM86 °FPassing clouds.6 mph59%29.89 "HgN/A
1:00 AM86 °FClear.5 mph62%29.89 "Hg10 mi
12:00 AM86 °FClear.2 mph59%29.92 "Hg10 mi
11:00 PM
Jul 28
88 °FClear.2 mph55%29.89 "Hg10 mi
10:00 PM90 °FPassing clouds.5 mph55%29.89 "HgN/A
9:00 PM90 °FClear.3 mph55%29.86 "Hg10 mi
8:00 PM91 °FPassing clouds.2 mph49%29.86 "HgN/A
7:00 PM91 °FPassing clouds.8 mph46%29.83 "HgN/A
6:00 PM95 °FPassing clouds.6 mph39%29.83 "HgN/A
5:00 PM95 °FScattered clouds.7 mph39%29.83 "HgN/A
4:00 PM95 °FPartly sunny.9 mph39%29.83 "HgN/A
3:00 PM95 °FPartly sunny.9 mph41%29.83 "HgN/A
2:00 PM95 °FPartly sunny.13 mph44%29.86 "HgN/A
1:00 PM93 °FPartly sunny.8 mph47%29.89 "HgN/A
Weather by CustomWeather, © 2014

See weather overviewHow to use our weather pages